User: anonymous   Login
Location: Axtheid
(49.6213°N, 11.8205°E)
Time: 21:06:48
(UTC+00:00)
Language:

Cosmos 1703 - Orbit

View from above orbital plane
View from above orbital plane
View from above satellite
View from above satellite

Ground track
Ground track

The orbit data is extracted from the following two-line orbital elements,

1 16262U 85108A   21112.00955886  .00001089  00000-0  62201-4 0  9990
2 16262  82.4772 308.8144 0012646 120.7094 239.5384 15.11642546931034
Epoch (UTC): 22 April 2021 00:13:45
Eccentricity: 0.0012646
inclination: 82.4772°
perigee height: 522 km
apogee height: 540 km
right ascension of ascending node: 308.8144°
argument of perigee: 120.7094°
revolutions per day: 15.11642546
mean anomaly at epoch: 239.5384°
orbit number at epoch: 93103

The dashed part of the orbit path shows where the satellite is in the earth's shadow,  

DLR